Simultaneous Nadir Overpasses (SNOs) Predictions

Prediction of SNOs over PacNW region [( 10.00, 139.50) to ( 22.70, 165.60)] between AQUA and NPP Satellites:

Table of predicted SNOs over PacNW region for the next 30.0 days since TLE Epoch: 12/7/2018
Index Date (AQUA) Time (AQUA) AQUA Lat,Lon Date (NPP) Time (NPP) NPP Lat,Lon Distance(km) Time Diff (sec)
1 12/08/2018 03:31:39 22.67, 147.53 12/08/2018 03:28:10 24.14, 145.31 279.50 209
2 12/13/2018 15:59:14 22.63, 147.50 12/13/2018 16:02:11 23.32, 144.49 318.31 177
3 12/21/2018 15:09:45 22.63, 159.88 12/21/2018 15:11:26 23.24, 157.15 287.61 101
4 12/24/2018 03:31:35 22.69, 147.55 12/24/2018 03:28:05 24.02, 145.33 270.03 210
5 12/29/2018 15:59:10 22.58, 147.52 12/29/2018 16:02:10 23.26, 144.46 322.48 180




NCC Satellite Simultaneous Nadir Overpasses (SNOs) Prediction Service
